Regional Weather Roundup
Issued by NWS Mobile, AL

Home | Current Version | Previous Version | Text Only | Print | Product List | Glossary On
Versions: 1 2 3 4 5 6 7 8 9 10 11 12 13 14 15 16 17 18 19 20 21 22 23 24 25 26 27 28 29 30 31 32 33 34 35 36 37 38 39 40 41 42 43 44 45 46 47 48 49 50
123
ASUS44 KMOB 301412
RWRMOB
REGIONAL WEATHER ROUNDUP
NATIONAL WEATHER SERVICE MOBILE AL
900 AM CDT THU MAR 30 2017

NOTE: "FAIR" INDICATES FEW OR NO CLOUDS BELOW 12,000 FEET WITH NO
      SIGNIFICANT WEATHER AND/OR OBSTRUCTIONS TO VISIBILITY.

  * THESE STATIONS ARE PART OF THE UNIVERSITY OF SOUTH ALABAMA
    MESONET AND ARE NOT UNDER NWS OR FAA QUALITY CONTROL.

ALZ061>064-301500-
COASTAL ALABAMA

CITY           SKY/WX    TMP DP  RH WIND       PRES   REMARKS
MOBILE REG APT CLOUDY    74  68  81 SE9       29.94S
BROOKLEY FIELD PTSUNNY   76  72  87 SE10      29.95R
USA CAMPUS*      N/A     75  70  83 E6        29.93F
DOG RIVER*       N/A     73  70  88 SE8       30.67S


CITY           SKY/WX    TMP DP  RH WIND       PRES   REMARKS
GULF SHORES    MOSUNNY   73  73  99 S12G18    29.94S

$$

ALZ051>060-301500-
INTERIOR SOUTHWEST AND SOUTH CENTRAL ALABAMA

CITY           SKY/WX    TMP DP  RH WIND       PRES   REMARKS
GREENVILLE     PTSUNNY   68  62  81 S7        29.97S
EVERGREEN      CLOUDY    69  66  90 SE6       29.97F
ATMORE*          N/A    N/A N/A N/A SE7       29.96F
ANDALUSIA/OPP  CLOUDY    67  61  81 E6        29.99F
ANDALUSIA*       N/A     63  63 100 E8        29.99S
FLORALA APT    FOG       63  62  97 E3        30.01S VSB 1/2
FLORALA*         N/A     64  63  94 CALM      30.71S

$$

FLZ001>006-301500-
WESTERN FLORIDA PANHANDLE

CITY           SKY/WX    TMP DP  RH WIND       PRES   REMARKS
PENSACOLA      MOSUNNY   75  69  81 E3        29.96S
NAS PENSACOLA  PTSUNNY   74  69  85 SE9       29.95S
MILTON         PTSUNNY   66  66 100 SE7       29.97S FOG
WHTNG S FIELD  FOG       70  67  90 E5        29.97S VSB 3/4


CITY           SKY/WX    TMP DP  RH WIND       PRES   REMARKS
JAY*             N/A     68  66  94 E6        29.97F
DUKE FIELD     PTSUNNY   67  67 100 CALM      29.98S
CRESTVIEW      CLOUDY    64  63  96 CALM      30.00S
VALPARAISO     CLOUDY    72  69  89 E3        29.98S
DESTIN         CLOUDY    75  73  93 SE8       29.98R

$$

MSZ076-079-301500-
INTERIOR SOUTHEAST MISSISSIPPI

CITY           SKY/WX    TMP DP  RH WIND       PRES   REMARKS
LEAKESVILLE*     N/A     64  63  94 E6        29.90F
AGRICOLA*        N/A     70  66  88 N2        29.92F

$$

MARINE OBSERVATIONS

STATION/POSITION TIME  TEMP    WIND        PRES    WAVE
                       AIR SEA DIR/SP/G            HT/PER
                 (UTC) (F)     (DEG/KT/KT) (MB)    (FT/S)
PASCAGOULA       1348   74     140/  8/ 12 1012.8F
PETIT BOIS ISLND 1348   74     140/  8/ 11 1014.0R
GRAND BAY        1230   74     180/  8     1014.0S
KATRINA CUT      1330          150/  9     1013.2R
CEDAR POINT      1330   74     150/  8     1013.5S
E DAUPHIN ISLAND 1300   73     140/ 11/ 13 1013.0F
MIDDLE BAY LIGHT 1330   73     140/ 11     1013.5S
USCG MOBILE BAY  1348   73 74  150/  5/  8 1014.2R
STATE DOCKS      1348   72 68              1013.6R
MEAHER PARK      1330   72     130/  2     1013.5F
WEEKS BAY        1245   71                   N/A
FORT MORGAN      1348   73     150/ 11/ 12   N/A
12 S ORANGE BCH  1250   71 71  140/  4/  4 1013.9R   4/ 6
PENSACOLA BAY    1348   74 74  170/  3/  5 1014.6R
64 S DAUPHIN ISL 1350   74 73  150/ 10/ 12 1013.9S   4/ 6
67 S FORT MORGAN 1330   73     140/  8     1014.2R

$$

SELECTED LOCATIONS ACROSS THE REGION

CITY           SKY/WX    TMP DP  RH WIND       PRES   REMARKS
NEW ORLEANS    TSTM      66  60  81 W25G32    29.92R
GULFPORT       PTSUNNY   76  71  85 SE13      29.90R
PASCAGOULA AP  CLOUDY    75  68  78 SE9       29.92S
PASCAGOULA*    NOT AVBL
HATTIESBURG    LGT RAIN  63  61  93 SE10      29.90S
LAUREL         CLOUDY    61  59  94 SE7       29.88S
MERIDIAN       CLOUDY    65  59  81 S10       29.85F
JACKSON        CLOUDY    65  60  84 S10       29.83S
MONTGOMERY     SUNNY     69  61  75 SE8       29.97F
TROY           SUNNY     65  62  90 CALM      30.01F
ASHFORD*         N/A     63  63 100 E8        29.99S
DOTHAN         SUNNY     70  62  76 SW5       30.05R
PANAMA CITY    PTSUNNY   69  64  84 CALM      30.00R

$$





USA.gov is the U.S. government's official web portal to all federal, state and local government web resources and services.